Starlink 31685

operational
NORAD ID: 59578 Int'l Des: 2024-076 Owner: SPXS Country: US Constellation: starlink
LEOCIRCULAR

About Starlink 31685

Description loading...

Live Position

Loading 3D Globe...

Upcoming Passes

Altitude History

Altitude vs Time

uPlot chart will show altitude changes over time

Two-Line Element Set

1 59578U 24076Q 25260.06769594 .00000615 00000-0 31865-4 0 9993
2 59578 43.0003 269.1536 0000516 246.6657 113.4140 15.27578348 79950
Epoch: Sep 17, 2025 • Age: 21 hours

Current Status

Altitude 484.4 km
Velocity 7.62 km/s
Sub-Earth Point -9.71°S, 114.48°E
Launch Date Apr 23, 2024
Age 1.4 years
Type internet

Technical Details

Classification Payload
Mass 730.00 kg
Dry Mass 700.00 kg
Total Mass 730.00 kg
Length 0.30 m
Diameter 4.10 m
Span 29.00 m
Shape Box + pan
Manufacturer SPXS
Bus Type Starlink V2M
Phase Status In Orbit
Owner/State SPXS/US

Large Constellations

Loading constellations...